Temperature
17 17 17 17 17 17 17 17 17 17 17 17 17 18 18 18 18 18 17 18 18 18 18 17 17 17 17 17 17 17 18 18 18 18 18 18 18 18 18 18 18 17 17
16 16 17 17 17 17 17 17 17 17 17 17 17 17 17 18 18 18 17 17 18 18 18 17 17 17 17 17 17 17 17 17 17 17 17 17 18 18 17 17 17 17 17
15 16 16 17 17 17 17 17 17 17 17 17 17 17 17 17 17 18 18 17 17 18 18 17 17 17 17 17 17 17 17 17 17 17 17 17 17 17 17 17 17 17 17
15 15 16 16 16 17 17 17 17 17 17 17 17 17 17 17 17 18 18 18 17 17 17 18 17 17 17 17 17 17 17 17 17 17 17 17 17 17 17 17 17 17 17
14 15 15 15 16 16 16 17 17 17 17 17 17 17 17 17 17 17 18 18 18 17 17 17 17 17 17 17 17 17 17 17 17 17 17 17 17 17 17 17 17 17 17
14 14 14 15 15 16 16 16 16 17 17 17 17 17 17 17 17 17 18 18 18 18 18 17 17 17 17 17 17 17 17 17 17 17 17 17 17 17 17 17 17 17 16
14 14 14 14 15 15 15 16 16 16 16 16 16 16 16 17 17 17 17 18 18 18 18 17 17 17 17 17 17 17 17 17 17 17 17 17 17 17 16 16 16 16 16
13 14 14 14 14 15 15 15 15 16 16 16 16 16 16 16 17 17 17 17 18 18 18 18 18 17 17 17 17 17 17 17 17 17 17 16 16 16 16 16 16 16 16
13 13 14 14 14 14 14 15 15 15 15 16 16 16 16 16 17 17 17 17 18 18 18 18 18 18 17 17 17 17 17 17 17 17 16 16 16 16 16 16 16 16 16
13 13 13 14 14 14 14 14 15 15 15 15 15 15 16 16 16 17 17 17 18 18 18 18 18 18 17 17 17 17 17 17 17 17 16 16 16 16 16 16 16 16 16
12 13 13 13 13 14 14 14 14 15 15 15 15 15 15 15 16 16 16 17 17 17 18 18 18 18 17 17 17 17 17 17 17 17 16 16 16 16 16 16 16 16 16
12 12 12 13 13 13 13 14 14 14 15 15 15 15 15 15 15 15 16 16 17 17 17 17 17 17 17 17 17 17 17 17 17 17 16 16 16 16 16 16 16 16 16
12 12 12 12 13 13 13 13 14 14 14 14 15 15 15 15 15 15 15 16 16 16 16 17 17 17 17 17 17 17 17 17 17 17 16 16 16 16 16 16 16 16 15
11 12 12 12 12 13 13 13 14 14 14 14 14 15 15 15 15 15 15 15 15 15 16 16 17 17 17 17 17 17 17 17 17 17 16 16 16 16 16 16 16 15 15
11 11 11 11 12 12 12 13 13 13 14 14 14 14 14 15 15 15 15 15 15 15 15 16 16 17 17 17 17 17 17 17 17 16 16 16 16 16 15 15 15 15 15
10 11 11 11 11 12 12 12 12 13 13 14 14 14 14 14 15 15 15 15 15 15 15 16 16 16 17 17 17 17 17 17 17 16 16 16 16 15 15 15 15 15 15
10 10 11 11 11 11 11 12 12 12 13 13 13 14 14 14 14 14 14 14 14 14 14 15 15 16 16 16 16 16 16 16 16 16 16 16 15 15 15 15 15 15 14
10 10 10 10 11 11 11 11 12 12 12 12 13 13 13 14 14 14 14 14 14 14 14 14 15 15 15 16 16 16 16 16 16 16 16 15 15 15 15 15 14 14 14
10 10 10 10 10 10 11 11 11 11 12 12 12 13 13 13 14 14 14 14 14 14 14 14 14 14 15 15 15 15 15 15 15 15 15 15 15 14 14 14 14 14 14
10 10 10 10 10 10 10 11 11 11 11 12 12 12 13 13 13 13 13 13 14 14 14 14 14 14 14 14 14 14 14 15 15 15 15 14 14 14 14 13 13 13 13
10 10 10 10 10 10 10 10 11 11 11 11 12 12 12 13 13 13 13 13 13 13 13 14 14 14 14 14 14 14 14 14 14 14 14 14 14 13 13 13 13 13 13
10 10 10 10 10 10 10 10 10 11 11 11 11 12 12 12 13 13 13 13 13 13 13 13 13 13 13 14 14 14 14 13 13 13 13 13 13 13 13 12 13 12 12
10 10 10 10 10 10 10 10 10 10 10 11 11 11 12 12 12 12 13 13 13 13 13 13 13 13 13 13 13 13 13 13 13 13 13 12 12 12 12 12 12 12 12
10 10 10 10 10 10 10 10 10 10 10 11 11 11 12 12 12 12 12 13 13 13 13 13 13 13 13 13 13 13 13 13 13 13 12 12 12 12 11 12 12 12 12
10 10 10 10 10 10 10 10 10 10 10 10 11 11 11 11 12 12 12 12 13 13 13 13 13 13 13 13 13 13 13 13 12 12 12 12 11 11 11 11 11 11 11
10 10 10 10 10 10 10 10 10 10 10 10 11 11 11 11 11 12 12 12 12 13 13 13 13 13 13 13 13 13 13 13 12 11 11 11 11 11 10 10 10 10 11
Wind_Speed
6 6 6 6 8 9 8 7 8 8 9 9 10 10 10 10 10 9 6 8 7 8 9 9 9 8 8 8 8 8 9 9 10 10 11 10 10 10 10 9 9 9 8
6 6 7 6 6 8 8 7 8 8 8 7 9 10 10 10 11 10 8 9 11 10 9 10 10 10 9 9 9 9 9 10 10 10 10 10 10 9 9 9 8 8 7
8 7 7 6 6 7 8 7 8 7 8 8 10 10 9 10 10 11 10 8 10 13 12 11 11 11 11 10 10 10 10 10 11 11 11 11 10 10 9 8 8 7 6
9 7 7 7 6 7 5 6 6 7 8 8 8 8 8 8 11 11 10 10 10 9 13 14 12 11 11 11 11 12 12 12 11 11 11 11 10 10 9 8 7 7 6
9 8 7 7 7 6 6 7 7 7 7 7 7 7 7 8 10 10 12 12 11 10 10 14 14 12 11 11 12 13 13 13 12 12 11 11 11 10 9 9 8 7 6
8 8 7 8 7 6 6 7 8 8 7 6 7 7 7 8 8 9 11 10 11 12 11 11 12 13 14 12 12 13 13 13 13 13 12 12 12 11 10 9 8 7 6
8 8 7 7 7 7 7 8 8 9 8 6 5 6 7 8 10 9 10 10 11 11 12 12 11 10 12 15 14 13 14 14 14 14 13 13 13 12 11 10 9 8 6
7 7 7 7 7 7 8 9 9 7 7 8 6 5 6 7 9 11 10 10 12 10 12 13 13 12 10 12 15 17 14 15 14 15 14 14 14 13 12 11 10 9 7
7 7 7 7 7 8 8 8 9 10 9 9 9 6 5 7 5 7 11 12 12 10 11 12 13 14 13 11 12 18 17 15 14 14 14 14 14 14 13 11 10 9 8
8 7 7 7 7 7 8 9 9 9 9 8 8 9 8 4 4 5 6 11 13 13 13 11 12 13 13 12 10 12 19 17 15 14 14 14 15 14 14 13 11 10 9
7 7 7 6 7 7 8 8 9 9 9 9 8 7 8 6 7 5 6 7 9 11 12 12 12 11 13 13 11 14 18 18 17 15 14 14 15 15 14 13 12 11 10
6 8 7 6 7 6 7 8 9 10 10 10 9 9 8 7 8 7 7 7 7 8 11 10 11 11 12 13 13 15 19 19 18 17 15 14 14 15 15 14 13 12 11
7 9 8 7 6 6 7 7 8 9 10 11 10 10 10 10 8 8 8 6 6 5 6 9 11 10 12 13 13 17 18 20 20 18 17 15 15 15 15 14 14 13 12
8 10 9 8 7 7 7 6 7 8 8 10 11 11 9 10 9 9 9 8 6 7 8 9 8 11 11 13 13 18 16 20 20 20 18 17 16 16 15 14 13 13 12
8 9 9 8 7 7 7 6 5 7 7 8 9 10 9 9 9 9 9 9 8 8 10 9 7 9 10 12 12 15 15 20 22 21 19 18 17 17 16 15 14 13 12
9 9 9 8 7 7 6 5 5 5 6 7 6 8 9 8 8 8 9 9 10 9 8 7 7 6 8 9 13 15 14 18 21 21 20 19 19 18 16 15 14 14 13
9 9 9 8 8 7 7 6 6 5 5 5 5 7 8 8 7 7 8 9 9 9 10 6 4 5 8 9 9 11 12 13 16 20 20 20 19 18 17 16 15 15 14
8 9 9 8 8 8 7 7 6 6 6 5 5 6 6 6 8 7 7 9 9 10 10 10 7 7 8 10 9 10 9 11 13 18 21 20 20 19 18 17 16 16 15
9 9 9 9 8 8 8 7 7 6 6 5 5 6 6 6 7 6 7 8 8 9 9 9 8 6 5 7 8 8 8 7 10 15 19 19 20 19 18 17 17 16 16
8 9 9 9 9 8 8 8 8 7 6 5 5 5 6 6 6 7 7 8 8 8 9 9 8 7 6 8 9 8 8 7 7 10 12 15 18 18 18 18 18 18 17
8 9 9 8 8 7 7 9 9 8 7 6 5 5 5 5 6 6 6 6 7 7 7 8 8 7 7 9 9 8 8 8 6 6 8 8 11 11 14 17 17 17 17
8 9 9 8 8 7 9 11 10 8 7 6 5 5 5 5 5 7 8 8 8 9 9 8 7 8 9 9 8 9 10 9 5 6 7 7 7 8 8 12 16 18 17
8 8 9 8 8 8 9 11 12 10 7 6 6 5 5 4 5 5 6 8 10 10 10 9 9 10 10 10 11 12 11 10 6 8 8 6 6 7 7 12 17 17 17
8 8 8 8 8 8 9 11 13 9 7 6 5 5 5 5 4 5 5 5 6 7 9 9 9 9 9 10 12 10 10 10 9 7 6 4 5 5 6 11 16 16 17
8 8 8 8 8 8 9 11 12 7 6 6 5 5 5 5 4 5 5 4 4 4 4 5 5 6 9 11 12 11 12 12 8 5 3 4 5 5 5 6 11 15 16
7 7 7 7 7 7 8 10 12 6 6 6 5 4 3 5 6 5 4 3 3 3 4 6 7 8 9 12 14 12 12 12 9 5 5 5 7 5 4 3 6 11 12
Wind_Direction
264 255 252 248 251 248 239 232 229 232 234 236 235 235 232 226 229 221 194 175 205 212 206 202 201 198 195 193 185 173 165 160 155 152 147 141 137 135 132 131 130 127 124
271 265 254 252 253 253 251 243 234 228 228 230 235 235 239 232 230 223 218 191 197 207 209 206 205 201 198 198 193 181 174 168 162 161 155 150 148 145 142 140 140 136 132
268 267 264 254 251 255 250 244 238 232 226 222 227 234 233 236 234 225 218 216 203 199 205 208 208 205 203 200 196 189 181 175 170 167 163 162 161 159 156 153 151 150 144
270 269 265 260 251 250 247 239 232 224 224 225 224 225 229 224 233 231 222 215 215 205 196 201 204 206 205 204 200 193 188 182 178 175 172 171 170 168 167 166 164 161 158
279 270 267 265 255 248 244 241 228 224 223 225 227 227 236 232 230 227 226 221 212 210 205 182 196 204 206 207 204 197 193 189 185 183 180 178 177 177 178 177 174 172 173
289 281 270 263 258 248 241 239 234 224 226 225 231 229 226 235 234 233 235 228 221 212 211 191 193 201 204 207 207 203 199 196 192 189 188 187 186 185 184 184 184 185 188
300 288 280 273 261 254 248 242 237 230 224 216 224 231 231 233 236 231 234 232 225 218 211 204 205 198 194 202 206 206 203 200 198 196 195 194 192 191 191 191 194 193 192
309 296 284 276 266 259 253 247 238 234 227 209 209 213 224 224 231 229 225 229 230 214 218 213 205 203 204 193 196 200 205 204 203 202 201 197 196 195 196 197 196 196 195
317 304 293 283 272 261 252 245 239 232 228 217 214 210 213 219 210 219 221 221 227 220 215 219 214 205 205 204 189 193 200 204 205 206 203 200 198 199 198 198 197 198 196
327 320 305 291 279 266 258 249 241 240 235 226 219 224 233 232 208 208 216 223 223 221 219 215 218 214 207 207 199 187 190 200 204 208 208 203 200 199 198 198 199 196 193
334 332 322 307 293 275 265 258 249 241 237 232 223 218 222 226 229 225 213 210 217 221 220 219 214 215 211 209 203 194 186 196 202 208 209 205 201 200 198 198 197 194 190
337 341 329 317 304 290 273 262 254 245 240 237 232 223 216 211 213 216 222 214 212 215 217 219 219 213 211 211 207 185 186 196 201 205 208 205 201 200 197 196 195 193 191
340 340 335 324 314 303 288 271 259 252 245 240 236 232 228 226 222 216 218 217 219 217 213 217 220 215 210 211 206 183 192 196 200 203 202 201 198 197 196 195 194 193 192
334 336 334 329 323 313 303 285 266 256 250 246 243 238 234 231 224 220 218 212 213 215 216 219 213 214 213 212 206 186 199 196 199 199 197 196 193 191 191 192 193 193 192
334 335 332 329 330 327 316 306 284 268 256 251 248 243 236 233 226 224 222 215 213 218 220 216 209 213 212 213 191 198 206 192 193 195 193 189 187 187 189 189 188 189 185
339 334 335 332 333 332 325 314 301 293 273 256 249 244 237 234 227 223 220 220 221 223 227 214 206 200 205 207 198 205 208 181 187 190 189 187 184 184 186 187 187 183 181
338 337 337 338 339 337 332 324 314 307 295 280 262 250 241 235 227 223 221 222 222 222 230 227 208 200 201 206 194 200 197 187 187 185 184 182 180 179 178 178 178 175 172
339 337 339 340 343 340 336 329 322 314 303 295 283 264 253 239 230 224 222 223 221 220 223 221 208 198 203 200 192 190 188 189 184 179 178 175 172 170 170 170 170 168 166
336 337 339 340 340 338 335 332 325 315 306 298 289 277 265 251 239 231 227 225 221 221 221 221 210 198 196 188 184 184 181 178 177 171 170 168 166 165 165 165 164 163 160
335 335 336 336 335 334 335 335 329 319 313 304 294 285 275 260 250 240 233 230 224 219 215 213 203 190 189 182 178 176 172 169 167 162 160 163 161 160 161 161 162 160 159
332 335 333 333 335 334 344 340 330 322 317 310 299 289 281 277 278 262 246 232 226 220 213 210 202 194 189 181 184 177 168 153 153 154 146 150 152 154 158 159 159 157 156
333 335 332 332 333 340 347 337 329 320 315 311 305 297 283 258 262 260 253 241 233 224 214 210 207 200 192 185 177 172 162 156 158 159 148 143 147 147 149 155 155 155 154
334 333 332 332 330 345 347 336 333 320 314 313 309 304 298 284 271 267 250 234 229 223 221 217 209 204 193 183 176 176 173 164 148 154 144 137 141 136 133 143 149 150 151
333 329 329 330 328 337 346 337 330 317 316 315 312 307 298 293 289 294 276 252 233 218 217 218 211 201 192 183 179 173 158 136 117 134 132 125 133 126 126 137 147 149 150
326 328 329 326 326 335 355 341 331 321 320 323 324 322 317 311 332 308 276 253 233 215 197 199 189 178 170 166 161 154 150 147 141 136 129 122 132 118 118 129 140 146 148
315 319 321 321 325 327 349 342 335 325 327 327 323 323 342 333 328 307 272 243 221 204 175 163 159 157 162 160 160 164 161 157 146 139 151 134 143 137 124 126 144 151 151
Height
1533 1534 1535 1536 1537 1538 1538 1539 1541 1543 1545 1546 1548 1550 1551 1552 1553 1554 1554 1554 1555 1555 1556 1557 1557 1558 1559 1560 1561 1563 1564 1565 1566 1567 1569 1570 1571 1572 1573 1574 1574 1575 1576
1530 1530 1531 1532 1533 1534 1535 1536 1537 1539 1540 1542 1544 1546 1548 1549 1550 1552 1552 1553 1553 1554 1555 1555 1556 1557 1558 1559 1561 1562 1563 1565 1566 1567 1569 1570 1571 1572 1573 1574 1575 1576 1576
1526 1526 1527 1527 1528 1529 1531 1532 1533 1535 1537 1538 1540 1542 1544 1546 1547 1549 1550 1551 1552 1552 1553 1554 1555 1556 1557 1558 1560 1561 1563 1564 1566 1567 1569 1570 1571 1572 1573 1574 1575 1576 1576
1522 1522 1522 1523 1524 1525 1526 1528 1529 1531 1532 1534 1536 1538 1540 1542 1544 1546 1548 1549 1551 1552 1551 1552 1553 1554 1555 1557 1558 1560 1562 1563 1565 1566 1568 1569 1571 1572 1573 1574 1575 1576 1576
1519 1519 1519 1519 1520 1521 1522 1524 1525 1527 1528 1530 1532 1534 1536 1539 1541 1543 1545 1547 1548 1549 1551 1550 1551 1552 1553 1555 1556 1558 1560 1562 1564 1565 1567 1569 1570 1571 1572 1573 1574 1575 1576
1515 1515 1515 1515 1516 1517 1518 1519 1520 1522 1524 1526 1528 1530 1532 1534 1537 1539 1542 1544 1546 1547 1549 1549 1549 1550 1551 1553 1554 1556 1558 1560 1562 1564 1566 1567 1569 1570 1571 1572 1573 1574 1575
1511 1511 1511 1512 1512 1512 1513 1514 1516 1518 1519 1522 1524 1526 1528 1530 1532 1535 1537 1540 1542 1544 1546 1547 1548 1549 1549 1550 1552 1554 1556 1558 1560 1562 1564 1565 1567 1569 1570 1571 1572 1573 1574
1508 1508 1507 1507 1508 1508 1508 1510 1511 1513 1515 1517 1519 1522 1524 1526 1527 1530 1532 1535 1538 1540 1542 1544 1546 1547 1548 1549 1549 1551 1553 1555 1557 1560 1562 1564 1565 1567 1568 1569 1570 1571 1572
1505 1504 1504 1503 1503 1504 1505 1505 1507 1508 1510 1512 1514 1517 1518 1519 1521 1524 1527 1530 1533 1535 1538 1540 1542 1544 1546 1547 1547 1548 1550 1553 1555 1557 1559 1561 1563 1565 1566 1567 1569 1570 1570
1503 1501 1500 1500 1499 1500 1500 1501 1502 1503 1505 1507 1509 1511 1514 1515 1517 1519 1522 1524 1528 1531 1533 1536 1538 1541 1542 1544 1545 1546 1548 1550 1552 1554 1557 1559 1561 1562 1564 1565 1567 1568 1569
1501 1499 1498 1496 1496 1496 1496 1496 1497 1498 1500 1501 1503 1505 1508 1510 1512 1515 1516 1519 1521 1525 1528 1531 1533 1536 1538 1540 1541 1543 1545 1547 1549 1551 1554 1556 1558 1560 1562 1563 1564 1566 1567
1500 1498 1496 1494 1493 1492 1492 1492 1493 1494 1495 1497 1498 1500 1502 1504 1506 1509 1511 1513 1515 1519 1522 1525 1528 1531 1533 1536 1537 1539 1542 1544 1546 1548 1551 1553 1555 1557 1559 1561 1562 1564 1565
1499 1496 1494 1492 1491 1489 1489 1488 1489 1490 1491 1492 1493 1495 1496 1498 1501 1503 1506 1508 1510 1513 1516 1519 1522 1525 1528 1531 1533 1535 1538 1541 1543 1545 1547 1550 1552 1554 1556 1558 1560 1561 1563
1497 1495 1492 1490 1488 1487 1486 1485 1485 1485 1486 1487 1488 1489 1491 1492 1495 1497 1500 1503 1505 1508 1510 1512 1515 1519 1522 1525 1528 1531 1534 1536 1539 1542 1544 1546 1549 1551 1553 1555 1557 1559 1560
1496 1493 1491 1489 1487 1485 1483 1482 1482 1482 1482 1482 1483 1484 1485 1487 1489 1491 1493 1496 1500 1501 1503 1506 1509 1512 1516 1519 1522 1526 1529 1532 1535 1538 1540 1543 1545 1548 1550 1552 1554 1556 1558
1495 1493 1490 1488 1486 1484 1482 1480 1479 1478 1478 1478 1478 1479 1480 1482 1483 1485 1487 1490 1493 1496 1498 1500 1503 1506 1510 1513 1516 1520 1524 1527 1530 1533 1536 1539 1541 1544 1547 1549 1551 1553 1555
1495 1492 1489 1487 1485 1483 1481 1479 1477 1476 1475 1475 1475 1475 1476 1477 1478 1480 1482 1484 1486 1489 1492 1495 1498 1501 1504 1507 1510 1514 1518 1521 1525 1528 1531 1535 1538 1540 1543 1545 1548 1550 1552
1494 1491 1489 1486 1484 1481 1479 1477 1475 1474 1473 1472 1472 1472 1472 1473 1473 1475 1477 1478 1480 1483 1486 1488 1491 1494 1498 1501 1505 1508 1512 1515 1519 1522 1526 1529 1533 1536 1539 1542 1544 1547 1549
1493 1491 1488 1485 1482 1480 1478 1476 1474 1472 1471 1470 1469 1469 1469 1469 1470 1471 1472 1473 1475 1477 1480 1482 1485 1488 1491 1495 1499 1502 1506 1510 1513 1517 1520 1524 1528 1531 1534 1537 1540 1543 1545
1493 1490 1487 1484 1481 1479 1476 1474 1472 1471 1469 1468 1467 1466 1466 1466 1466 1467 1468 1469 1470 1472 1474 1476 1479 1482 1485 1489 1493 1496 1500 1504 1507 1511 1515 1519 1523 1526 1529 1533 1536 1539 1541
1491 1489 1486 1483 1480 1477 1475 1472 1470 1469 1467 1465 1464 1463 1463 1463 1463 1463 1464 1465 1466 1468 1469 1471 1473 1476 1479 1482 1486 1490 1494 1498 1502 1506 1509 1513 1518 1521 1525 1529 1532 1535 1538
1490 1487 1484 1481 1478 1476 1473 1470 1468 1467 1465 1463 1462 1461 1460 1460 1460 1460 1461 1461 1462 1463 1465 1467 1468 1471 1473 1476 1480 1484 1488 1493 1497 1502 1505 1509 1513 1517 1521 1525 1528 1531 1534
1489 1486 1483 1480 1477 1474 1471 1469 1467 1465 1463 1461 1459 1458 1457 1457 1457 1457 1457 1457 1458 1459 1461 1462 1464 1466 1468 1471 1475 1479 1484 1488 1492 1496 1502 1505 1510 1514 1518 1521 1524 1528 1531
1488 1485 1482 1479 1476 1473 1470 1467 1465 1463 1461 1459 1458 1456 1455 1455 1455 1454 1454 1454 1454 1455 1456 1458 1460 1462 1465 1468 1471 1475 1479 1484 1490 1494 1499 1502 1507 1511 1515 1518 1522 1525 1528
1487 1484 1481 1477 1474 1472 1469 1466 1464 1462 1460 1458 1456 1455 1454 1453 1452 1451 1451 1451 1451 1452 1453 1455 1457 1459 1461 1465 1468 1472 1476 1481 1485 1491 1495 1499 1504 1508 1513 1516 1519 1523 1526
1486 1483 1480 1476 1473 1471 1468 1465 1463 1461 1459 1457 1455 1454 1452 1451 1450 1450 1449 1449 1449 1449 1450 1452 1454 1457 1459 1462 1466 1470 1474 1478 1483 1488 1492 1497 1501 1506 1511 1514 1517 1521 1524